Find Starlink 32202

NORAD ID: 60595 Int'l Des: 2024-150 Owner: SPXS Country: US Constellation: starlink operational
LEOCIRCULAR

当前视图

正在加载3D地球...

About Starlink 32202

Starlink 32202 (NORAD 60595) is a starlink constellation satellite (v2 mini) launched Aug 20, 2024 by SPXS of US. It operates in LEO, CIRCULAR orbit with a mass of 730.00 kg.

关于 Starlink 32202

正在加载描述...

即将过境

Passes for default location (London). Set your location on the main map for personalized predictions.

高度历史

Loading altitude history...

两行轨道根数

1 60595U 24150N 26175.16497918 .00002401 00000-0 89118-4 0 9991
2 60595 53.1602 172.4309 0000685 44.8688 315.2369 15.31689972104349
Epoch: Jun 24, 2026 • Age: 24 hours

当前状态

高度 475.4 km
速度 7.63 km/s
星下点 45.39°N, 33.99°W
发射日期 Aug 20, 2024
运行时间 1.8 years
类型 internet

技术详情

分类 Payload
质量 730.00 kg
干质量 700.00 kg
总质量 730.00 kg
长度 0.30 m
直径 4.10 m
跨度 29.00 m
形状 Box + pan
制造商 SPXS
平台类型 Starlink V2M
阶段状态 In Orbit
所有者/国家 SPXS/US

Most Searched